Back to catalog

GAOFEN 12 (03)

AliveScienceSSO
NORAD 52912·PAYLOAD·🇨🇳 China

Launched Jun 27, 2022 from Jiuquan Satellite Launch Center

Loading…

Next Passes (next 24 hours)

TLE

FreshSource: Space-Track

Epoch: Sep 14, 2026, 15:05 UTC

1 52912U 22069A   26257.62892508  .00000120  00000-0  22464-4 0  9995
2 52912  97.8130 143.1855 0001015 114.4050 245.7268 14.80149319227845

Track GAOFEN 12 (03) in real time with AllMySat

Download on the App Store